KUIPRT-00138

导读

KUIPER-00167是美国亚马逊公司柯伊伯卫星互联网项目的组网卫星,于2025年9月25日发射入轨,属于近地轨道活动卫星。柯伊伯计划旨在打造由超3200颗低轨卫星组成的全球互联网星座,为全球尤其是偏远区域提供高速低延迟网络接入,该卫星将助力项目完成FCC要求的2026年中半数部署目标,挑战星链主导的市场格局。

Basic Information
目录编号:
65780
目录名称:
KUIPER-00167
国际标识:
2025-217U
轨道中心:
EARTH
卫星名称:
KUIPER-00167
卫星全名:
KUIPRT-00138
卫星状态:
在轨 (已飞行352 天)
发射日期:
2025-09-25 UTC
国别 :
美国 (US)
星等 :
--
This satellite is enrolled in the Space Conjunction Data Service (SCDS) and the current flight risk assessment level is: No High Risk
Orbit Information
数据来源 国际轨道数据
星历时间: 2026-09-12T03:50:15+0800
10小时前
查看轨道信息
半长轴: 7007.703km
偏心率: 0.0000455
轨道倾角: 51.897°
近地点辐角 73.009°
升交点赤经 302.393°
平近点角 287.092°
近地点: 629.247km
远地点: 629.885km
周期: 97.302分钟
每日圈数: 14.799236
Detailed Information
使用方式:
暂无
2D Orbit Map
3D Orbit Map
Orbit Altitude Analysis Chart
Orbit Inclination Analysis Chart
Orbit Comprehensive Analysis Chart
View Comprehensive Chart
Conjunction Data List
Event ID Objects TCA Miss Dist (km) Collision Risk Probability Collision Risk Index (CRI) Action
CDM_260912-154603-112606-578022
MAST (31126)
2026-09-12T
15:46:03+0000
0.758 km
远距离
5.138884E-5 中风险 0.69
Miss Distance Evolution Trend with All Objects
Collision Probability Evolution Trend with All Objects